Date,TemperatureHighF,TemperatureAvgF,TemperatureLowF,DewpointHighF,DewpointAvgF,DewpointLowF,HumidityHigh,HumidityAvg,HumidityLow,PressureMaxIn,PressureMinIn,WindSpeedMaxMPH,WindSpeedAvgMPH,GustSpeedMaxMPH,PrecipitationSumIn
2013-2-1,76,64,52,56,50,41,77,61,46,30.28,30.17,21,4,21,0.00
2013-2-2,75,64,56,56,51,38,87,64,44,30.28,30.13,14,2,14,0.00
2013-2-3,77,64,53,56,50,37,93,64,29,30.19,30.08,13,2,13,0.00
2013-2-4,76,62,48,55,49,41,92,66,34,30.17,30.04,13,1,13,0.00
2013-2-5,80,66,53,64,58,51,96,77,52,30.10,30.01,13,2,13,0.00
2013-2-6,82,70,60,67,63,59,97,78,54,30.12,30.04,13,2,13,0.00
2013-2-7,82,73,63,66,64,60,93,75,54,30.10,29.97,15,2,15,0.00
2013-2-8,87,74,68,72,68,60,96,83,58,30.05,29.94,16,3,16,0.34
2013-2-9,80,71,63,69,63,59,97,78,62,30.18,30.03,17,4,17,0.00
2013-2-10,79,72,68,66,62,60,78,71,57,30.26,30.16,23,4,23,0.01
2013-2-11,80,73,67,67,64,62,87,75,62,30.23,30.13,16,3,16,0.00
2013-2-12,85,73,62,70,66,61,97,81,55,30.14,29.99,18,3,18,0.00
2013-2-13,86,76,67,73,70,66,97,84,64,30.03,29.92,19,4,19,0.01
2013-2-14,87,75,63,74,69,62,96,82,56,30.04,29.88,23,4,23,0.61
2013-2-15,73,67,63,69,65,62,97,94,83,30.04,29.96,12,2,12,0.89
2013-2-16,78,66,55,65,57,46,97,75,38,30.11,29.90,22,5,22,0.02
2013-2-17,60,53,46,46,32,22,73,47,26,30.33,30.10,22,5,22,0.00
2013-2-18,71,60,47,57,47,38,72,62,47,30.33,30.21,17,4,17,0.00
2013-2-19,79,70,58,66,62,54,94,76,63,30.22,30.10,17,3,17,0.00
2013-2-20,80,72,65,68,65,60,96,80,53,30.13,30.03,12,2,12,0.00
2013-2-21,82,73,64,68,66,63,95,79,57,30.11,30.01,17,2,17,0.00
2013-2-22,82,76,71,72,70,67,90,82,63,30.12,30.03,16,4,16,0.00
2013-2-23,85,77,72,72,71,68,94,81,62,30.06,29.94,13,5,18,0.00
2013-2-24,90,77,70,74,71,64,97,82,43,30.02,29.92,17,2,17,0.00
2013-2-25,86,76,68,74,70,66,97,81,59,29.93,29.83,20,3,20,0.00
2013-2-26,85,79,75,75,72,70,89,79,62,29.92,29.81,22,6,22,0.02
2013-2-27,79,72,66,73,68,64,95,88,67,29.99,29.88,12,2,12,0.16
2013-2-28,74,66,61,65,56,49,94,71,49,30.03,29.93,16,3,16,0.00